Time,TemperatureF,DewpointF,PressureIn,WindDirection,WindDirectionDegrees,WindSpeedMPH,WindSpeedGustMPH,Humidity,HourlyPrecipIn,Conditions,Clouds,dailyrainin,SoftwareType,DateUTC
2013-06-11 00:02:00,88.0,39.0,29.99,SE,125,14.0,20.0,18,-99.99,,,-99.99,,2013-06-11 06:02:00,
2013-06-11 00:12:00,88.0,38.0,29.99,SE,126,13.0,16.0,17,-99.99,,,-99.99,,2013-06-11 06:12:00,
2013-06-11 00:22:00,87.0,37.0,29.99,SE,131,13.0,17.0,17,-99.99,,,-99.99,,2013-06-11 06:22:00,
2013-06-11 00:32:00,87.0,37.0,29.99,SE,132,12.0,17.0,17,-99.99,,,-99.99,,2013-06-11 06:32:00,
2013-06-11 00:42:00,87.0,37.0,29.99,SE,132,10.0,15.0,17,-99.99,,,-99.99,,2013-06-11 06:42:00,
2013-06-11 00:52:00,86.0,36.0,29.99,SE,131,10.0,13.0,17,-99.99,,,-99.99,,2013-06-11 06:52:00,
2013-06-11 01:02:00,85.0,36.0,29.99,SE,131,12.0,16.0,17,-99.99,,,-99.99,,2013-06-11 07:02:00,
2013-06-11 01:12:00,85.0,36.0,29.99,SE,130,12.0,15.0,17,-99.99,,,-99.99,,2013-06-11 07:12:00,
2013-06-11 01:22:00,85.0,35.0,29.99,SE,129,13.0,17.0,17,-99.99,,,-99.99,,2013-06-11 07:22:00,
2013-06-11 01:32:00,84.0,36.0,30.00,SE,131,10.0,13.0,18,-99.99,,,-99.99,,2013-06-11 07:32:00,
2013-06-11 01:42:00,84.0,36.0,30.00,SE,130,10.0,16.0,18,-99.99,,,-99.99,,2013-06-11 07:42:00,
2013-06-11 01:52:00,84.0,37.0,30.00,SE,126,12.0,16.0,19,-99.99,,,-99.99,,2013-06-11 07:52:00,
2013-06-11 02:02:00,84.0,37.0,30.00,SE,131,14.0,18.0,19,-99.99,,,-99.99,,2013-06-11 08:02:00,
2013-06-11 02:12:00,83.0,37.0,30.00,SE,131,12.0,15.0,19,-99.99,,,-99.99,,2013-06-11 08:12:00,
2013-06-11 02:22:00,83.0,37.0,30.00,SE,132,9.0,13.0,20,-99.99,,,-99.99,,2013-06-11 08:22:00,
2013-06-11 02:32:00,82.0,38.0,30.00,SE,130,9.0,12.0,21,-99.99,,,-99.99,,2013-06-11 08:32:00,
2013-06-11 02:42:00,81.0,38.0,30.00,SE,129,10.0,13.0,21,-99.99,,,-99.99,,2013-06-11 08:42:00,
2013-06-11 02:52:00,80.0,37.0,30.00,SE,133,9.0,12.0,21,-99.99,,,-99.99,,2013-06-11 08:52:00,
2013-06-11 03:02:00,80.0,38.0,30.00,SE,136,9.0,12.0,22,-99.99,,,-99.99,,2013-06-11 09:02:00,
2013-06-11 03:12:00,80.0,38.0,30.00,SE,132,8.0,10.0,22,-99.99,,,-99.99,,2013-06-11 09:12:00,
2013-06-11 03:22:00,80.0,38.0,30.00,SE,137,6.0,7.0,23,-99.99,,,-99.99,,2013-06-11 09:22:00,
2013-06-11 03:33:00,79.0,38.0,30.01,SSE,154,3.0,5.0,23,-99.99,,,-99.99,,2013-06-11 09:33:00,
2013-06-11 03:43:00,79.0,38.0,30.01,South,190,2.0,3.0,23,-99.99,,,-99.99,,2013-06-11 09:43:00,
2013-06-11 03:53:00,78.0,38.0,30.02,SW,227,3.0,5.0,24,-99.99,,,-99.99,,2013-06-11 09:53:00,
2013-06-11 04:03:00,77.0,38.0,30.01,SE,143,5.0,6.0,24,-99.99,,,-99.99,,2013-06-11 10:03:00,
2013-06-11 04:12:00,77.0,38.0,30.01,SE,138,7.0,7.0,25,-99.99,,,-99.99,,2013-06-11 10:12:00,
2013-06-11 04:22:00,76.0,39.0,30.01,SSE,147,7.0,8.0,26,-99.99,,,-99.99,,2013-06-11 10:22:00,
2013-06-11 04:33:00,78.0,39.0,30.01,SSE,160,5.0,6.0,25,-99.99,,,-99.99,,2013-06-11 10:33:00,
2013-06-11 04:42:00,77.0,40.0,30.01,SSE,159,5.0,6.0,26,-99.99,,,-99.99,,2013-06-11 10:42:00,
2013-06-11 04:52:00,77.0,40.0,30.01,South,174,6.0,6.0,26,-99.99,,,-99.99,,2013-06-11 10:52:00,
2013-06-11 05:02:00,77.0,40.0,30.02,South,177,6.0,7.0,26,-99.99,,,-99.99,,2013-06-11 11:02:00,
2013-06-11 05:12:00,76.0,39.0,30.02,SSE,160,6.0,8.0,27,-99.99,,,-99.99,,2013-06-11 11:12:00,
2013-06-11 05:22:00,76.0,40.0,30.02,SSE,160,3.0,5.0,27,-99.99,,,-99.99,,2013-06-11 11:22:00,
2013-06-11 05:32:00,75.0,40.0,30.02,SE,141,8.0,10.0,28,-99.99,,,-99.99,,2013-06-11 11:32:00,
2013-06-11 05:42:00,75.0,40.0,30.02,SE,137,8.0,10.0,29,-99.99,,,-99.99,,2013-06-11 11:42:00,
2013-06-11 05:52:00,75.0,41.0,30.02,SE,128,8.0,10.0,29,-99.99,,,-99.99,,2013-06-11 11:52:00,
2013-06-11 06:02:00,75.0,41.0,30.02,SE,128,8.0,9.0,29,-99.99,,,-99.99,,2013-06-11 12:02:00,
2013-06-11 06:12:00,75.0,41.0,30.02,ESE,120,7.0,9.0,29,-99.99,,,-99.99,,2013-06-11 12:12:00,
2013-06-11 06:22:00,75.0,41.0,30.02,SE,126,9.0,10.0,30,-99.99,,,-99.99,,2013-06-11 12:22:00,
2013-06-11 06:32:00,75.0,42.0,30.02,SE,126,9.0,12.0,30,-99.99,,,-99.99,,2013-06-11 12:32:00,
2013-06-11 06:42:00,76.0,41.0,30.03,ESE,120,9.0,12.0,29,-99.99,,,-99.99,,2013-06-11 12:42:00,
2013-06-11 06:52:00,76.0,42.0,30.03,ESE,114,7.0,9.0,30,-99.99,,,-99.99,,2013-06-11 12:52:00,
2013-06-11 07:02:00,76.0,42.0,30.03,ESE,116,7.0,8.0,30,-99.99,,,-99.99,,2013-06-11 13:02:00,
2013-06-11 07:12:00,76.0,42.0,30.03,SE,124,6.0,7.0,30,-99.99,,,-99.99,,2013-06-11 13:12:00,
2013-06-11 07:22:00,76.0,43.0,30.03,ESE,118,6.0,8.0,30,-99.99,,,-99.99,,2013-06-11 13:22:00,
2013-06-11 07:32:00,78.0,43.0,30.03,SE,127,10.0,14.0,29,-99.99,,,-99.99,,2013-06-11 13:32:00,
2013-06-11 07:42:00,78.0,43.0,30.03,SE,128,10.0,14.0,29,-99.99,,,-99.99,,2013-06-11 13:42:00,
2013-06-11 07:52:00,79.0,44.0,30.03,SE,126,9.0,14.0,29,-99.99,,,-99.99,,2013-06-11 13:52:00,
2013-06-11 08:02:00,79.0,44.0,30.03,SE,126,9.0,14.0,29,-99.99,,,-99.99,,2013-06-11 14:02:00,
2013-06-11 08:12:00,79.0,44.0,30.03,SE,126,9.0,14.0,29,-99.99,,,-99.99,,2013-06-11 14:12:00,
2013-06-11 08:22:00,79.0,44.0,30.03,SE,126,9.0,14.0,29,-99.99,,,-99.99,,2013-06-11 14:22:00,
2013-06-11 10:03:00,86.0,44.0,30.06,SE,146,9.0,10.0,23,-99.99,,,-99.99,,2013-06-11 16:03:00,
2013-06-11 10:12:00,87.0,44.0,30.06,SE,125,10.0,13.0,23,-99.99,,,-99.99,,2013-06-11 16:12:00,
2013-06-11 10:22:00,87.0,45.0,30.06,SE,125,9.0,14.0,23,-99.99,,,-99.99,,2013-06-11 16:22:00,
2013-06-11 10:33:00,88.0,43.0,30.06,ESE,119,8.0,12.0,21,-99.99,,,-99.99,,2013-06-11 16:33:00,
2013-06-11 10:42:00,89.0,44.0,30.05,ESE,107,7.0,10.0,21,-99.99,,,-99.99,,2013-06-11 16:42:00,
2013-06-11 10:52:00,89.0,43.0,30.05,SSE,155,8.0,15.0,20,-99.99,,,-99.99,,2013-06-11 16:52:00,
2013-06-11 11:02:00,90.0,44.0,30.05,SSE,151,9.0,12.0,20,-99.99,,,-99.99,,2013-06-11 17:02:00,
2013-06-11 11:12:00,90.0,44.0,30.05,SSW,197,6.0,10.0,20,-99.99,,,-99.99,,2013-06-11 17:12:00,
2013-06-11 11:22:00,90.0,43.0,30.05,South,180,7.0,10.0,20,-99.99,,,-99.99,,2013-06-11 17:22:00,
2013-06-11 11:32:00,92.0,44.0,30.05,SSE,166,7.0,10.0,19,-99.99,,,-99.99,,2013-06-11 17:32:00,
2013-06-11 11:43:00,92.0,44.0,30.05,SE,146,8.0,13.0,19,-99.99,,,-99.99,,2013-06-11 17:43:00,
2013-06-11 11:52:00,93.0,43.0,30.05,SSE,149,7.0,8.0,18,-99.99,,,-99.99,,2013-06-11 17:52:00,
2013-06-11 12:02:00,93.0,43.0,30.05,SE,131,6.0,8.0,18,-99.99,,,-99.99,,2013-06-11 18:02:00,
2013-06-11 12:12:00,94.0,43.0,30.04,ESE,112,8.0,12.0,17,-99.99,,,-99.99,,2013-06-11 18:12:00,
2013-06-11 12:22:00,95.0,43.0,30.04,East,101,7.0,9.0,17,-99.99,,,-99.99,,2013-06-11 18:22:00,
2013-06-11 12:32:00,95.0,42.0,30.04,East,83,6.0,8.0,16,-99.99,,,-99.99,,2013-06-11 18:32:00,
2013-06-11 12:42:00,95.0,43.0,30.03,SSE,153,10.0,14.0,17,-99.99,,,-99.99,,2013-06-11 18:42:00,
2013-06-11 12:52:00,96.0,42.0,30.03,SE,141,9.0,13.0,16,-99.99,,,-99.99,,2013-06-11 18:52:00,
2013-06-11 13:02:00,96.0,41.0,30.03,East,90,6.0,9.0,15,-99.99,,,-99.99,,2013-06-11 19:02:00,
2013-06-11 13:12:00,96.0,41.0,30.03,ENE,60,3.0,6.0,15,-99.99,,,-99.99,,2013-06-11 19:12:00,
2013-06-11 13:22:00,97.0,40.0,30.02,SE,124,6.0,9.0,14,-99.99,,,-99.99,,2013-06-11 19:22:00,
2013-06-11 13:32:00,96.0,39.0,30.02,North,0,0.0,5.0,14,-99.99,,,-99.99,,2013-06-11 19:32:00,
2013-06-11 13:42:00,99.0,41.0,30.01,ENE,78,6.0,13.0,14,-99.99,,,-99.99,,2013-06-11 19:42:00,
2013-06-11 14:02:00,99.0,37.0,30.01,SE,136,6.0,9.0,12,-99.99,,,-99.99,,2013-06-11 20:02:00,
2013-06-11 14:12:00,100.0,38.0,30.00,East,94,5.0,7.0,12,-99.99,,,-99.99,,2013-06-11 20:12:00,
2013-06-11 14:22:00,99.0,37.0,30.00,East,85,7.0,9.0,12,-99.99,,,-99.99,,2013-06-11 20:22:00,
2013-06-11 14:32:00,99.0,38.0,29.99,WSW,248,5.0,8.0,12,-99.99,,,-99.99,,2013-06-11 20:32:00,
2013-06-11 14:42:00,99.0,38.0,29.99,SSW,209,6.0,7.0,12,-99.99,,,-99.99,,2013-06-11 20:42:00,
2013-06-11 14:52:00,100.0,36.0,29.98,ENE,72,5.0,8.0,11,-99.99,,,-99.99,,2013-06-11 20:52:00,
2013-06-11 15:02:00,100.0,36.0,29.98,NE,51,7.0,10.0,11,-99.99,,,-99.99,,2013-06-11 21:02:00,
2013-06-11 15:12:00,101.0,37.0,29.98,NNW,335,5.0,6.0,11,-99.99,,,-99.99,,2013-06-11 21:12:00,
2013-06-11 15:22:00,100.0,36.0,29.97,North,10,8.0,10.0,11,-99.99,,,-99.99,,2013-06-11 21:22:00,
2013-06-11 15:33:00,102.0,37.0,29.97,NW,306,3.0,7.0,11,-99.99,,,-99.99,,2013-06-11 21:33:00,
2013-06-11 15:42:00,102.0,38.0,29.97,NNE,22,5.0,7.0,11,-99.99,,,-99.99,,2013-06-11 21:42:00,
2013-06-11 15:53:00,102.0,37.0,29.96,ESE,107,3.0,7.0,11,-99.99,,,-99.99,,2013-06-11 21:53:00,
2013-06-11 16:03:00,101.0,37.0,29.96,East,85,6.0,7.0,11,-99.99,,,-99.99,,2013-06-11 22:03:00,
2013-06-11 16:12:00,102.0,38.0,29.95,NNE,24,8.0,12.0,11,-99.99,,,-99.99,,2013-06-11 22:12:00,
2013-06-11 16:22:00,101.0,36.0,29.95,East,91,3.0,6.0,11,-99.99,,,-99.99,,2013-06-11 22:22:00,
2013-06-11 16:32:00,103.0,36.0,29.94,ESE,115,6.0,9.0,10,-99.99,,,-99.99,,2013-06-11 22:32:00,
2013-06-11 16:42:00,102.0,35.0,29.94,ENE,59,8.0,12.0,10,-99.99,,,-99.99,,2013-06-11 22:42:00,
2013-06-11 16:52:00,103.0,36.0,29.93,ENE,62,12.0,16.0,10,-99.99,,,-99.99,,2013-06-11 22:52:00,
2013-06-11 17:02:00,103.0,36.0,29.93,East,92,10.0,13.0,10,-99.99,,,-99.99,,2013-06-11 23:02:00,
2013-06-11 17:12:00,102.0,35.0,29.93,NNE,26,8.0,13.0,10,-99.99,,,-99.99,,2013-06-11 23:12:00,
2013-06-11 17:22:00,101.0,35.0,29.93,ENE,75,6.0,9.0,10,-99.99,,,-99.99,,2013-06-11 23:22:00,
2013-06-11 17:32:00,101.0,35.0,29.93,South,176,6.0,8.0,10,-99.99,,,-99.99,,2013-06-11 23:32:00,
2013-06-11 17:42:00,101.0,34.0,29.92,NNE,12,7.0,12.0,10,-99.99,,,-99.99,,2013-06-11 23:42:00,
2013-06-11 17:52:00,101.0,34.0,29.92,ENE,64,6.0,9.0,10,-99.99,,,-99.99,,2013-06-11 23:52:00,
2013-06-11 18:02:00,102.0,35.0,29.92,East,85,8.0,13.0,10,-99.99,,,-99.99,,2013-06-12 00:02:00,
2013-06-11 18:12:00,101.0,35.0,29.91,SSE,161,10.0,14.0,10,-99.99,,,-99.99,,2013-06-12 00:12:00,
2013-06-11 18:22:00,101.0,35.0,29.91,North,7,6.0,9.0,10,-99.99,,,-99.99,,2013-06-12 00:22:00,
2013-06-11 18:32:00,101.0,35.0,29.91,NW,325,5.0,9.0,10,-99.99,,,-99.99,,2013-06-12 00:32:00,
2013-06-11 18:42:00,101.0,35.0,29.90,NNE,18,7.0,12.0,10,-99.99,,,-99.99,,2013-06-12 00:42:00,
2013-06-11 18:52:00,100.0,34.0,29.90,East,98,5.0,8.0,10,-99.99,,,-99.99,,2013-06-12 00:52:00,
2013-06-11 19:02:00,101.0,34.0,29.90,ENE,67,6.0,7.0,10,-99.99,,,-99.99,,2013-06-12 01:02:00,
2013-06-11 19:12:00,100.0,34.0,29.90,NNE,18,5.0,6.0,10,-99.99,,,-99.99,,2013-06-12 01:12:00,
2013-06-11 19:22:00,100.0,34.0,29.90,East,87,2.0,6.0,10,-99.99,,,-99.99,,2013-06-12 01:22:00,
2013-06-11 19:32:00,100.0,34.0,29.90,ESE,122,3.0,3.0,10,-99.99,,,-99.99,,2013-06-12 01:32:00,
2013-06-11 19:42:00,100.0,34.0,29.91,SSE,167,3.0,5.0,10,-99.99,,,-99.99,,2013-06-12 01:42:00,
2013-06-11 19:52:00,99.0,33.0,29.91,SE,124,3.0,5.0,10,-99.99,,,-99.99,,2013-06-12 01:52:00,
2013-06-11 20:02:00,99.0,35.0,29.91,ESE,121,6.0,8.0,11,-99.99,,,-99.99,,2013-06-12 02:02:00,
2013-06-11 20:12:00,99.0,35.0,29.91,SSE,155,3.0,5.0,11,-99.99,,,-99.99,,2013-06-12 02:12:00,
2013-06-11 20:22:00,97.0,34.0,29.91,South,170,5.0,8.0,11,-99.99,,,-99.99,,2013-06-12 02:22:00,
2013-06-11 20:32:00,97.0,36.0,29.91,SSE,163,2.0,3.0,12,-99.99,,,-99.99,,2013-06-12 02:32:00,
2013-06-11 20:42:00,96.0,35.0,29.91,SSW,199,3.0,5.0,12,-99.99,,,-99.99,,2013-06-12 02:42:00,
2013-06-11 20:52:00,95.0,34.0,29.92,South,183,6.0,6.0,12,-99.99,,,-99.99,,2013-06-12 02:52:00,
2013-06-11 21:02:00,94.0,34.0,29.92,South,171,6.0,6.0,12,-99.99,,,-99.99,,2013-06-12 03:02:00,
2013-06-11 21:12:00,92.0,34.0,29.92,SSE,157,7.0,7.0,13,-99.99,,,-99.99,,2013-06-12 03:12:00,
2013-06-11 21:22:00,92.0,34.0,29.93,South,173,6.0,7.0,13,-99.99,,,-99.99,,2013-06-12 03:22:00,
2013-06-11 21:32:00,92.0,34.0,29.93,South,170,6.0,7.0,13,-99.99,,,-99.99,,2013-06-12 03:32:00,
2013-06-11 21:43:00,92.0,34.0,29.93,SSE,168,7.0,8.0,13,-99.99,,,-99.99,,2013-06-12 03:43:00,
2013-06-11 21:53:00,93.0,35.0,29.94,SSE,159,10.0,13.0,13,-99.99,,,-99.99,,2013-06-12 03:53:00,
2013-06-11 22:03:00,93.0,35.0,29.95,SSE,156,12.0,14.0,13,-99.99,,,-99.99,,2013-06-12 04:03:00,
2013-06-11 22:13:00,93.0,35.0,29.95,SSE,165,10.0,14.0,13,-99.99,,,-99.99,,2013-06-12 04:13:00,
2013-06-11 22:23:00,91.0,35.0,29.96,SSE,152,9.0,12.0,14,-99.99,,,-99.99,,2013-06-12 04:23:00,
2013-06-11 22:33:00,90.0,35.0,29.96,SSE,149,9.0,12.0,14,-99.99,,,-99.99,,2013-06-12 04:33:00,
2013-06-11 22:42:00,90.0,35.0,29.97,SE,145,10.0,13.0,14,-99.99,,,-99.99,,2013-06-12 04:42:00,
2013-06-11 22:52:00,91.0,35.0,29.97,SE,135,10.0,16.0,14,-99.99,,,-99.99,,2013-06-12 04:52:00,
2013-06-11 23:03:00,92.0,36.0,29.97,SE,130,12.0,18.0,14,-99.99,,,-99.99,,2013-06-12 05:03:00,
2013-06-11 23:12:00,91.0,35.0,29.97,SE,132,15.0,20.0,14,-99.99,,,-99.99,,2013-06-12 05:12:00,
2013-06-11 23:22:00,91.0,34.0,29.98,SE,134,14.0,20.0,13,-99.99,,,-99.99,,2013-06-12 05:22:00,
2013-06-11 23:32:00,91.0,33.0,29.98,SE,133,14.0,18.0,13,-99.99,,,-99.99,,2013-06-12 05:32:00,
2013-06-11 23:42:00,90.0,33.0,29.98,SE,132,13.0,17.0,13,-99.99,,,-99.99,,2013-06-12 05:42:00,
2013-06-11 23:52:00,90.0,32.0,29.98,SE,137,12.0,15.0,13,-99.99,,,-99.99,,2013-06-12 05:52:00,